Temperature
25 24 24 24 24 24 24 24 24 24 24 23 24 26 28 29 29 29 29 29 30 29 29 28 27 26 26 25 24 23 22 21 20 20 20 19 19 19 18 18 18 18 18 18
24 24 25 25 24 23 23 22 22 22 22 22 23 24 27 29 29 29 29 29 30 30 28 27 26 25 25 24 23 23 22 21 20 19 19 19 19 18 18 18 18 18 18 18
24 25 25 24 24 23 23 21 21 20 20 22 22 23 25 28 29 29 29 29 30 29 28 26 25 24 23 23 22 22 21 21 20 19 18 18 18 18 18 18 18 18 17 17
26 26 25 25 24 24 22 22 21 20 19 19 20 20 24 27 28 28 28 29 29 29 28 25 24 23 22 22 21 21 21 20 20 19 18 17 17 17 18 18 18 18 17 17
26 27 26 25 26 25 24 23 22 21 20 19 20 20 23 26 26 27 28 28 28 28 27 25 24 23 22 22 21 21 21 20 19 18 18 17 17 17 17 17 17 17 17 17
27 28 27 26 27 26 25 24 23 22 21 20 22 21 21 23 24 26 27 28 27 27 26 24 23 23 22 21 21 21 21 20 19 18 18 17 17 17 17 17 17 17 17 16
26 27 27 27 25 26 25 23 21 20 19 20 22 21 22 23 25 26 26 27 26 26 25 24 23 22 21 21 21 21 20 20 20 19 18 18 18 17 17 17 17 17 16 16
24 24 26 25 25 24 25 24 21 20 20 20 20 20 23 25 25 26 25 25 25 25 24 23 22 22 21 21 21 20 20 20 19 19 19 18 18 18 17 17 17 16 16 16
22 23 25 25 25 25 24 24 24 22 21 21 22 22 24 24 25 25 25 25 25 24 24 23 22 22 21 21 21 20 20 19 19 19 19 19 19 18 17 17 16 16 16 15
22 21 23 24 25 25 24 24 23 21 19 20 22 22 20 21 22 23 24 24 23 23 23 23 22 22 21 21 21 20 20 19 19 19 19 18 18 18 17 17 16 16 16 15
22 20 21 22 22 20 20 20 21 20 20 18 18 19 19 18 18 19 21 22 22 22 22 22 22 22 22 22 21 21 20 20 19 19 19 18 18 17 17 17 16 16 16 16
21 20 19 20 20 18 18 18 19 18 18 19 18 18 18 18 17 18 19 20 22 23 23 23 23 23 22 22 21 21 20 20 20 19 19 18 18 17 17 17 16 16 16 16
20 18 17 18 18 16 14 16 19 20 19 19 18 19 18 18 18 18 18 19 20 22 23 23 23 23 23 23 22 22 21 20 20 19 19 18 18 17 17 17 16 16 16 16
20 19 17 16 16 16 15 16 19 20 18 18 18 17 17 17 18 19 20 20 21 21 22 23 23 23 23 22 22 22 21 21 20 19 19 18 18 18 17 17 16 16 16 16
20 19 19 19 19 18 17 17 19 19 18 17 16 16 16 18 19 20 21 21 21 21 22 22 22 22 22 22 22 22 21 21 20 19 18 18 18 18 17 17 17 16 16 16
19 18 18 18 19 19 16 14 16 17 16 15 15 15 17 18 19 19 19 20 20 21 21 21 22 22 22 22 21 21 20 20 19 19 18 18 18 18 17 17 16 16 16 16
19 18 17 16 18 18 13 10 11 13 14 15 14 15 17 17 17 17 17 18 19 19 20 20 20 20 20 20 20 20 20 19 19 18 18 18 17 17 17 16 16 16 16 16
19 17 16 16 16 14 9 9 9 11 12 12 14 15 16 16 17 17 17 17 17 18 18 18 18 18 18 18 18 18 18 18 18 17 17 17 16 16 16 15 15 15 15 15
19 17 15 15 14 12 9 9 8 9 11 11 12 13 14 16 17 17 17 17 16 17 17 17 17 17 17 17 17 17 17 16 16 15 15 15 15 15 15 15 15 15 15 15
18 17 16 15 13 11 9 10 9 10 11 10 10 12 13 15 15 16 17 17 16 16 16 16 16 16 16 16 16 16 15 15 14 14 14 14 14 14 14 14 14 14 14 14
16 16 15 14 13 10 10 10 10 10 9 9 10 11 12 13 14 15 16 17 16 16 16 16 15 15 15 15 15 14 14 13 13 13 13 13 13 13 13 14 14 13 13 13
15 14 14 14 12 11 12 12 10 10 9 9 10 11 12 13 14 15 16 17 17 16 16 15 15 15 15 14 14 13 13 13 13 12 12 12 12 12 12 12 12 12 12 12
15 14 13 13 13 13 12 12 11 10 10 10 10 11 12 13 14 15 16 17 17 16 16 15 15 15 15 14 14 13 13 13 13 13 12 12 12 11 11 11 11 11 11 12
15 15 14 13 14 13 12 12 11 11 11 11 11 11 12 13 14 15 16 17 17 17 16 15 15 15 15 14 14 14 13 13 14 13 13 12 12 11 11 11 11 11 11 12
14 14 13 13 13 13 12 11 11 11 11 11 11 12 12 13 14 15 16 17 17 17 16 16 16 15 15 15 14 14 14 13 14 14 13 12 12 11 11 11 11 11 11 11
15 14 13 13 13 12 12 12 12 12 12 12 12 12 12 13 15 16 16 17 17 17 17 16 15 15 15 15 15 14 14 13 13 13 13 12 12 12 11 11 11 11 11 11
Wind_Speed
4 7 9 8 5 5 8 10 12 11 12 12 14 15 14 11 8 7 8 8 9 10 12 10 11 9 7 6 6 9 10 7 5 4 3 2 2 3 4 3 3 4 4 5
6 8 5 2 3 6 7 9 10 12 15 13 15 18 17 14 11 10 11 12 11 9 11 13 11 8 7 7 7 9 9 7 6 4 3 2 2 2 4 4 3 5 6 6
8 4 0 4 7 8 8 6 5 7 10 11 14 17 19 18 15 12 12 10 8 3 12 16 13 11 9 8 7 8 9 8 6 4 2 1 2 2 4 5 5 5 6 6
8 5 6 9 10 9 8 6 5 4 3 4 5 9 15 14 11 8 8 8 7 5 7 15 14 13 10 9 8 10 9 8 7 6 4 5 5 5 6 6 6 7 6 6
9 6 7 11 10 8 7 6 8 8 7 8 10 9 10 11 9 5 2 3 5 6 10 15 13 13 12 11 8 9 9 8 8 8 7 5 5 4 4 4 7 7 7 7
14 11 8 8 9 7 5 6 9 9 7 9 12 11 7 4 5 5 5 3 2 6 10 14 12 13 13 10 9 9 8 7 7 6 6 6 6 5 4 3 4 4 4 5
15 10 5 3 8 8 8 8 5 5 6 5 4 5 6 6 3 1 3 3 2 7 10 14 14 13 11 10 9 9 9 8 7 6 7 7 7 6 7 6 5 5 4 4
14 10 5 5 9 11 9 11 8 5 5 3 2 5 5 7 6 3 3 3 6 8 11 14 13 12 11 10 9 9 9 9 8 7 8 8 8 4 2 3 3 4 3 3
12 15 15 14 14 14 14 12 10 9 12 12 7 7 4 3 3 4 6 6 7 10 12 15 14 13 12 11 9 8 9 8 9 8 7 4 4 6 3 3 3 3 3 2
14 19 18 19 18 14 13 11 5 3 4 7 6 1 5 5 6 4 1 6 6 7 6 7 8 11 13 11 10 9 9 9 9 7 4 3 1 4 3 2 4 5 4 4
16 14 17 16 12 10 11 9 6 4 4 3 3 2 6 11 12 11 8 7 7 7 6 4 4 6 9 11 11 10 9 8 9 8 6 6 3 2 4 3 4 4 4 5
10 9 13 16 9 13 9 10 7 2 4 3 2 1 10 10 10 14 16 13 8 3 3 5 5 4 6 9 11 12 11 10 9 8 7 7 6 5 4 6 6 6 6 6
10 8 11 10 7 12 8 13 14 8 3 4 4 1 15 17 16 15 15 15 13 9 6 3 1 2 2 5 8 10 11 10 9 8 7 7 7 7 7 6 7 7 7 8
6 9 9 10 10 6 7 14 16 11 4 5 5 8 16 17 16 13 11 12 10 8 8 5 2 2 3 4 5 7 8 10 11 8 6 6 6 8 7 6 6 6 7 8
9 12 14 13 12 9 9 12 13 8 6 4 7 10 14 14 14 12 11 9 7 6 6 5 3 3 2 4 4 5 5 8 11 10 7 6 7 6 7 6 5 5 5 6
9 12 16 17 14 8 10 20 17 14 14 12 11 10 16 18 15 15 15 12 9 7 7 6 6 4 3 1 3 4 4 5 9 9 7 6 4 2 3 4 5 5 5 5
9 12 13 13 14 9 8 15 15 14 16 14 14 14 18 19 16 16 16 15 14 13 12 11 11 11 10 9 7 7 6 5 5 4 3 1 1 2 2 3 4 5 5 6
11 12 7 9 10 4 5 8 13 10 14 19 18 20 21 19 9 14 16 15 15 14 14 13 12 12 12 12 12 11 10 10 9 8 6 5 5 4 4 4 5 5 5 5
12 8 6 6 6 5 6 9 10 7 6 16 20 22 23 23 12 14 18 14 13 13 11 11 11 11 11 11 10 10 11 10 9 9 8 9 9 8 7 6 5 5 5 5
12 8 6 6 5 4 4 11 14 6 2 13 18 20 22 23 15 14 16 11 10 9 9 9 10 10 10 10 11 11 10 9 9 8 8 8 7 7 7 7 6 5 4 4
13 10 10 8 5 3 2 9 8 4 6 15 16 18 19 18 15 16 15 8 6 7 7 8 8 7 8 9 10 10 9 8 7 6 6 6 6 5 6 6 5 5 4 4
10 9 9 8 7 4 7 7 5 5 9 12 15 16 18 18 18 17 15 7 5 6 6 6 6 6 7 7 7 7 6 5 5 4 4 4 5 5 4 4 4 4 3 2
7 7 6 6 5 5 5 4 5 7 11 13 14 17 18 18 17 17 14 8 4 4 5 4 3 4 6 6 6 6 3 2 3 4 3 4 5 4 3 4 3 3 2 2
6 6 5 5 5 8 6 7 9 10 11 13 14 16 17 17 16 15 13 8 2 4 5 1 1 3 4 4 4 5 4 4 1 4 3 5 5 4 4 5 6 6 6 6
4 4 5 4 7 8 7 11 12 14 14 14 14 15 15 16 15 13 11 8 3 4 4 1 2 3 1 2 4 5 5 6 4 3 5 6 5 4 4 5 6 6 6 5
1 3 4 4 7 7 10 11 12 13 14 14 15 16 16 15 14 11 10 7 4 2 2 3 2 2 3 3 4 6 4 5 6 5 5 4 3 3 2 4 4 8 7 8
Wind_Direction
248 255 258 265 281 283 292 301 305 315 345 328 298 290 284 270 245 231 232 237 230 207 183 152 130 123 133 138 141 136 138 137 119 120 144 153 166 138 131 143 175 204 247 235
269 270 290 299 288 283 287 293 301 316 336 328 309 299 288 274 253 231 228 232 224 205 153 127 126 126 135 122 117 118 119 124 125 130 146 155 166 176 171 175 194 205 232 245
276 266 227 262 262 264 265 266 279 299 324 320 315 295 280 271 257 237 224 232 241 237 157 142 140 132 122 117 119 113 118 122 130 138 141 164 159 213 191 191 206 211 217 239
270 230 222 253 258 252 262 231 224 248 288 285 294 296 288 290 283 251 219 213 220 222 153 141 139 134 131 126 122 123 131 146 157 165 186 197 187 202 208 198 200 208 210 222
282 267 259 271 277 256 258 210 213 227 234 256 250 256 271 291 292 279 233 201 197 167 138 137 138 138 134 131 129 133 144 155 162 178 185 204 215 215 231 211 187 198 201 206
266 261 257 274 297 279 256 224 231 233 242 256 245 230 269 307 338 2 1 11 114 137 133 132 130 124 125 135 142 142 150 150 156 175 188 201 217 218 227 220 187 183 185 203
312 285 230 238 278 265 239 248 265 245 227 262 328 235 238 226 250 348 356 5 78 131 138 129 125 123 131 143 151 150 157 150 163 186 212 211 211 220 214 201 186 180 185 196
320 323 11 336 308 302 274 254 248 269 273 293 323 265 263 206 192 162 109 100 124 139 138 134 138 138 147 156 161 162 163 162 170 198 220 215 189 189 217 144 147 166 175 186
320 310 318 315 304 291 286 276 276 268 271 272 237 215 194 190 170 166 155 151 145 146 144 146 150 152 160 164 168 170 165 167 173 206 226 226 167 156 160 152 148 131 145 167
315 310 310 311 306 296 301 296 277 261 285 279 283 0 7 348 355 333 147 115 98 105 114 135 149 161 165 167 171 177 179 180 177 206 202 143 70 133 121 122 151 156 175 170
317 307 306 306 314 327 332 322 304 292 254 272 317 21 35 23 3 348 14 64 96 103 109 118 157 192 172 168 171 178 188 191 173 186 178 142 172 162 151 176 149 150 171 170
334 317 305 305 8 24 353 317 299 276 289 298 286 38 44 36 8 359 354 354 357 45 120 148 161 181 185 180 180 185 191 191 172 175 167 164 173 169 196 192 173 178 184 184
337 315 313 316 355 24 358 319 319 322 307 287 283 36 25 12 1 351 338 325 318 329 338 351 99 163 212 200 193 193 190 183 166 169 168 169 178 185 205 210 184 183 185 188
296 291 296 302 307 301 286 293 304 309 308 306 350 9 13 359 339 324 307 296 302 310 313 316 325 259 228 228 218 206 190 173 161 160 169 183 206 191 196 211 190 187 197 194
326 312 315 310 299 282 292 317 317 335 1 19 24 33 5 342 324 328 330 323 313 301 297 302 293 266 226 211 213 211 196 171 156 155 175 196 225 202 188 198 185 200 218 213
328 315 316 311 307 301 34 24 29 42 46 53 45 25 353 348 359 8 3 3 3 12 15 5 1 13 348 224 184 166 153 148 151 157 182 195 216 233 185 191 195 211 218 229
338 332 325 310 306 297 51 15 17 37 38 40 37 13 357 0 13 19 13 19 29 36 35 33 36 34 30 42 59 79 81 86 102 124 132 151 204 271 265 242 234 224 218 218
349 343 331 321 335 58 61 11 6 9 35 24 13 6 1 356 359 29 21 27 29 33 37 38 42 43 46 50 51 56 54 51 51 43 32 26 20 1 340 311 285 266 247 229
1 354 342 342 347 83 37 5 350 329 346 13 1 355 354 352 357 15 15 28 29 25 31 34 40 48 47 47 53 61 61 55 47 36 31 35 33 23 8 349 323 304 290 279
3 9 4 359 5 31 354 329 320 271 268 359 348 344 348 353 3 354 350 17 34 24 27 36 35 41 48 46 47 55 57 54 46 36 37 38 35 24 8 351 344 341 335 328
355 2 9 5 27 71 333 330 346 49 313 320 326 332 341 344 336 328 335 6 47 43 29 46 44 39 49 59 58 54 52 55 52 43 42 41 32 29 16 355 357 3 13 14
8 2 6 3 18 26 9 358 8 313 302 310 318 325 329 328 327 330 334 353 45 58 47 51 55 49 48 55 72 68 50 54 70 55 47 70 60 30 19 5 2 8 23 29
31 16 349 353 4 13 353 354 335 307 305 312 317 318 322 324 328 330 330 341 58 69 73 66 67 71 73 59 53 69 44 8 87 68 40 75 92 68 29 10 4 6 19 32
18 7 343 341 2 2 15 7 339 325 313 311 311 314 319 322 324 325 325 330 75 93 87 86 201 98 81 79 70 56 15 334 86 112 78 79 75 70 53 30 20 28 26 25
339 338 334 333 1 352 347 341 328 321 319 319 317 317 319 320 320 324 327 337 35 103 124 258 10 55 77 95 87 75 29 340 337 91 91 89 86 85 82 70 45 35 51 39
7 350 342 346 354 331 320 324 323 322 324 325 321 320 320 317 317 326 332 338 354 36 129 146 121 293 305 44 65 83 49 348 357 50 62 69 89 88 106 130 110 60 61 57
Height
1479 1481 1482 1479 1478 1481 1481 1482 1483 1479 1476 1479 1476 1467 1458 1454 1454 1455 1457 1459 1460 1462 1465 1469 1472 1477 1481 1486 1489 1491 1493 1496 1499 1501 1503 1506 1507 1509 1510 1511 1514 1515 1518 1520
1479 1480 1475 1476 1479 1481 1482 1486 1487 1483 1480 1483 1478 1469 1458 1452 1450 1451 1453 1454 1455 1458 1461 1464 1469 1474 1479 1483 1487 1489 1491 1493 1495 1498 1500 1502 1505 1507 1508 1510 1511 1513 1515 1517
1480 1478 1475 1477 1478 1481 1482 1487 1489 1491 1486 1482 1484 1477 1461 1449 1444 1445 1447 1449 1451 1454 1457 1461 1467 1472 1477 1481 1485 1487 1488 1490 1493 1494 1497 1499 1501 1503 1506 1507 1508 1510 1511 1513
1473 1469 1473 1475 1475 1477 1483 1480 1484 1488 1494 1495 1493 1496 1467 1450 1444 1441 1442 1446 1448 1452 1455 1459 1465 1470 1475 1480 1483 1485 1487 1488 1490 1492 1494 1496 1499 1501 1503 1504 1505 1507 1508 1510
1471 1466 1468 1471 1468 1468 1472 1473 1479 1483 1488 1492 1487 1492 1470 1451 1449 1443 1442 1444 1446 1449 1454 1458 1464 1469 1475 1478 1481 1483 1485 1487 1488 1490 1492 1495 1497 1499 1501 1502 1502 1503 1504 1505
1465 1461 1463 1464 1463 1464 1465 1471 1475 1477 1484 1492 1475 1482 1475 1459 1453 1448 1445 1445 1446 1450 1454 1459 1464 1469 1474 1477 1480 1482 1484 1486 1487 1489 1491 1492 1495 1496 1498 1499 1500 1501 1501 1502
1466 1458 1457 1462 1466 1463 1465 1475 1490 1493 1495 1487 1468 1474 1469 1454 1449 1447 1447 1446 1447 1449 1454 1458 1463 1468 1473 1476 1479 1481 1483 1485 1486 1488 1489 1491 1492 1494 1495 1496 1497 1498 1499 1499
1479 1475 1464 1465 1468 1468 1464 1469 1489 1499 1494 1486 1478 1477 1459 1446 1445 1445 1446 1446 1447 1451 1454 1458 1463 1467 1471 1475 1477 1480 1482 1484 1485 1487 1488 1490 1491 1492 1494 1494 1495 1495 1496 1496
1488 1483 1468 1466 1466 1465 1466 1464 1461 1474 1477 1481 1471 1462 1452 1446 1446 1446 1446 1447 1447 1450 1453 1457 1462 1466 1470 1473 1476 1479 1481 1483 1484 1485 1487 1489 1490 1490 1491 1492 1492 1493 1493 1493
1486 1489 1477 1469 1465 1461 1461 1460 1467 1478 1489 1485 1470 1468 1473 1463 1458 1454 1449 1447 1449 1451 1455 1457 1461 1465 1469 1471 1474 1477 1479 1481 1483 1484 1486 1487 1488 1489 1489 1490 1490 1490 1490 1491
1488 1491 1485 1476 1474 1476 1476 1475 1472 1473 1477 1491 1493 1487 1473 1473 1472 1466 1457 1455 1455 1456 1458 1459 1463 1465 1467 1470 1472 1475 1477 1480 1481 1482 1483 1484 1485 1486 1487 1487 1488 1488 1489 1489
1490 1493 1493 1483 1481 1482 1481 1482 1476 1486 1485 1482 1491 1490 1476 1475 1475 1471 1466 1462 1460 1459 1459 1460 1462 1465 1466 1468 1469 1472 1474 1476 1478 1479 1481 1482 1483 1484 1485 1485 1486 1486 1487 1487
1496 1499 1504 1495 1491 1493 1496 1489 1478 1473 1477 1482 1488 1487 1476 1474 1474 1472 1470 1467 1465 1462 1460 1460 1461 1463 1464 1466 1467 1469 1470 1472 1474 1475 1477 1479 1481 1482 1483 1484 1484 1484 1485 1486
1496 1497 1504 1510 1504 1499 1499 1491 1479 1474 1483 1485 1487 1487 1483 1480 1477 1473 1470 1467 1463 1461 1460 1460 1460 1461 1462 1463 1464 1466 1467 1469 1471 1473 1475 1477 1480 1481 1481 1482 1483 1483 1484 1484
1494 1496 1493 1491 1489 1489 1490 1488 1480 1478 1480 1488 1492 1493 1492 1484 1478 1472 1467 1463 1460 1459 1459 1459 1459 1459 1460 1460 1461 1463 1465 1467 1468 1470 1473 1476 1478 1479 1479 1480 1480 1481 1482 1482
1496 1497 1494 1491 1485 1485 1496 1499 1491 1488 1490 1495 1497 1498 1492 1485 1477 1473 1468 1464 1461 1459 1458 1458 1458 1458 1458 1458 1459 1461 1463 1465 1467 1469 1472 1474 1475 1476 1477 1477 1478 1478 1479 1480
1496 1497 1499 1496 1485 1484 1508 1520 1514 1508 1504 1502 1505 1504 1494 1487 1482 1478 1473 1468 1465 1463 1462 1461 1460 1459 1459 1458 1459 1460 1462 1465 1468 1470 1471 1473 1473 1474 1474 1474 1475 1475 1476 1477
1498 1498 1499 1498 1494 1509 1533 1529 1524 1518 1512 1512 1508 1504 1499 1493 1486 1483 1478 1475 1472 1469 1467 1466 1465 1463 1463 1462 1462 1463 1464 1466 1467 1469 1470 1470 1470 1470 1470 1470 1471 1472 1472 1473
1499 1500 1503 1506 1507 1517 1529 1527 1528 1526 1518 1517 1514 1508 1502 1494 1486 1484 1482 1480 1478 1475 1473 1472 1470 1469 1468 1467 1467 1467 1467 1467 1468 1468 1469 1468 1467 1467 1467 1466 1467 1467 1468 1469
1502 1501 1505 1508 1514 1526 1535 1528 1524 1523 1520 1519 1518 1513 1507 1500 1494 1491 1487 1484 1482 1480 1477 1476 1474 1473 1472 1471 1471 1470 1470 1469 1469 1469 1468 1467 1465 1464 1464 1463 1463 1462 1463 1464
1510 1508 1510 1512 1517 1529 1531 1527 1523 1526 1528 1522 1520 1515 1511 1507 1503 1497 1490 1486 1484 1482 1481 1479 1478 1477 1476 1475 1474 1473 1472 1471 1470 1469 1468 1466 1465 1463 1461 1460 1459 1459 1460 1460
1519 1520 1520 1519 1525 1533 1527 1526 1528 1529 1525 1522 1519 1515 1511 1507 1501 1495 1490 1487 1486 1485 1484 1483 1481 1480 1480 1479 1477 1475 1474 1474 1472 1471 1469 1467 1465 1463 1461 1460 1459 1459 1459 1459
1523 1527 1526 1527 1530 1527 1526 1526 1526 1525 1523 1520 1517 1513 1509 1505 1500 1495 1491 1488 1486 1486 1485 1485 1484 1483 1482 1481 1480 1478 1477 1475 1474 1473 1471 1469 1467 1465 1463 1462 1462 1461 1461 1461
1524 1527 1526 1526 1524 1526 1525 1526 1525 1523 1521 1517 1514 1511 1507 1503 1499 1495 1491 1488 1487 1486 1486 1486 1485 1484 1484 1482 1481 1479 1478 1476 1475 1474 1472 1471 1469 1467 1465 1465 1464 1464 1463 1463
1527 1527 1527 1526 1526 1525 1525 1525 1523 1520 1517 1514 1511 1508 1505 1502 1498 1494 1491 1488 1487 1486 1486 1486 1485 1485 1485 1484 1482 1480 1478 1476 1476 1475 1473 1472 1470 1469 1468 1467 1466 1466 1465 1465
1524 1527 1528 1527 1527 1527 1525 1523 1520 1517 1515 1512 1508 1504 1502 1499 1496 1494 1491 1488 1487 1487 1486 1485 1485 1485 1485 1484 1483 1480 1478 1477 1476 1475 1474 1473 1472 1471 1470 1469 1468 1467 1467 1466